CAPE
806 787 762 743 753 718 743 826 884 867 950 711 996 1092 1194 1304 1148 940 777 531 173 4 0 0 0 0 0 0 0 0 0 0 0 2 2 13 2 12 2 0 2 12 0
849 969 912 824 801 777 776 830 874 957 956 672 905 1095 1064 1308 1146 1074 985 682 229 5 7 0 0 0 0 0 0 0 0 0 0 42 5 4 13 8 0 3 0 0 0
605 975 1009 923 848 842 836 831 909 996 987 866 1194 1177 1322 1269 1063 1074 1097 767 352 270 130 8 0 0 5 0 0 0 0 0 0 0 10 11 18 15 7 0 4 0 7
518 768 922 1009 977 1019 1020 981 927 978 1028 819 1162 1238 1326 1264 1008 987 992 850 588 561 493 313 93 35 54 54 34 1 0 2 0 7 17 23 20 26 10 21 14 7 12
637 725 879 900 932 984 1068 1158 1190 1115 1081 1063 953 1401 1380 1292 1188 978 887 885 696 750 716 624 533 463 298 125 69 10 3 0 1 14 15 11 9 0 19 9 13 2 1
789 859 971 1067 1067 1080 1059 1032 1123 1280 1259 1203 1074 1191 1544 1272 1285 1361 1258 1292 968 1037 896 883 960 815 465 318 187 103 87 53 17 18 29 33 55 24 6 12 10 7 0
955 1024 1164 1236 1308 1353 1365 1271 1141 1171 1313 1287 1274 1099 1142 1463 1394 1394 1397 1433 1443 1503 1382 1259 1287 980 731 434 293 146 75 93 93 22 64 49 103 99 23 0 0 1 0
1148 1186 1428 1503 1490 1536 1580 1529 1424 1303 1282 1378 1373 1396 1243 1267 1571 1761 1705 1653 1652 1651 1507 1527 1796 1442 974 803 426 66 4 42 52 86 69 116 83 17 21 25 7 1 10
1409 1422 1598 1730 1716 1732 1822 1853 1759 1588 1442 1466 1426 1508 1558 1464 1366 1529 1714 1775 1817 1863 1702 2114 1975 1751 1255 871 580 164 8 21 64 31 4 11 46 39 51 51 11 2 0
1727 1746 1802 1797 1714 1682 1810 1990 2053 1985 1835 1685 1730 1662 1695 1704 1605 1447 1515 1719 1911 1901 2155 2520 2232 1803 1276 1061 606 304 33 98 40 21 22 43 31 12 0 0 3 0 0
1655 1882 1951 1977 1949 1817 1792 1859 1951 2153 2155 1954 1868 1816 1819 1892 1932 1831 1657 1719 1887 2265 2589 2676 2544 1739 1024 818 441 198 35 58 12 6 19 12 2 3 3 0 0 0 0
1586 1821 1962 2118 2202 2159 2162 2125 2098 2180 2296 2352 2208 2004 1922 1998 2077 2092 1971 2067 2254 2451 2709 2754 2059 1152 953 480 253 254 123 20 8 19 3 10 4 1 0 0 0 0 0
1074 1645 1973 2142 2369 2395 2393 2248 2213 2332 2434 2426 2332 2343 2256 2995 2131 2318 2344 2414 2471 2790 2718 2388 1538 938 592 215 148 34 17 11 13 3 12 6 1 0 0 0 0 0 0
776 1091 1393 1968 2228 2457 2393 2321 2277 2381 2444 2443 2461 2330 2550 2948 2486 2271 2426 2169 1913 2132 2031 1692 788 526 66 2 1 0 0 0 5 16 11 3 0 0 0 0 0 0 0
1420 1047 951 1293 1641 2248 2463 2406 2367 2369 2364 2446 2428 2435 2752 2531 1935 1742 1356 1327 876 793 672 494 227 41 30 4 1 0 0 0 2 0 4 0 0 0 0 0 0 0 0
1985 1831 1319 1177 1346 1974 2258 2253 2314 2294 2332 2342 2328 2365 2008 1383 746 292 52 90 324 373 404 41 25 32 5 0 0 0 0 0 0 0 0 0 0 0 0 0 1 0 0
210 1517 2146 1547 1191 1393 1742 1984 1877 2253 2387 2425 2271 2028 967 737 453 4 1 40 196 327 69 31 17 10 0 0 0 0 0 0 0 0 0 0 0 0 0 0 0 0 0
61 270 765 1436 1809 1583 1462 1580 1478 1412 2101 2207 2040 1010 443 79 111 0 1 336 336 187 21 69 61 38 0 0 0 0 0 0 0 0 0 0 0 0 0 0 0 0 0
24 55 328 521 823 992 1087 1383 1455 1323 1352 737 526 298 117 48 1 187 403 388 262 240 232 280 159 14 0 0 0 0 0 0 0 0 0 0 0 0 0 0 0 0 0
255 170 134 190 222 376 429 736 755 676 637 503 7 2 43 105 148 234 112 238 313 267 23 0 0 0 0 0 0 0 0 0 0 0 0 0 0 0 0 0 0 0 0
167 90 23 0 0 3 4 0 2 53 0 0 0 0 254 377 289 123 166 54 3 0 0 0 0 0 0 0 0 0 0 0 0 0 0 0 0 0 0 0 0 0 0
175 161 71 0 3 3 0 0 0 3 17 7 262 358 416 305 166 39 0 0 0 0 0 0 0 0 0 0 0 0 0 0 0 0 0 0 0 0 0 0 0 0 0
320 271 281 198 134 104 147 46 79 174 243 346 402 320 250 97 16 0 0 0 0 0 0 0 0 0 0 0 0 0 0 0 0 0 0 0 0 0 0 0 0 0 0
109 123 68 71 135 174 220 278 227 214 332 300 365 284 186 109 77 34 2 0 0 0 0 0 0 0 0 0 0 0 0 0 0 0 0 0 0 0 0 0 0 0 0
55 24 32 46 105 73 41 15 3 21 34 61 112 105 126 83 88 44 43 21 0 0 0 0 0 2 0 1 1 0 0 0 0 0 0 0 0 0 0 0 0 0 0
10 9 41 15 20 14 40 60 60 48 57 41 41 22 39 53 48 44 34 12 2 0 0 0 6 12 17 7 1 1 0 0 0 0 0 0 0 0 0 0 0 0 0
CIN
-530 -488 -434 -392 -355 -219 -192 -124 -105 -108 -93 -202 -111 -103 -108 -79 -94 -106 -113 -122 -185 -96 -0 -0 -0 -0 -0 -0 -0 -0 -0 -0 -0 -85 -49 -51 -39 -152 -139 -25 -51 -36 -0
-613 -522 -487 -448 -406 -282 -238 -189 -120 -120 -124 -216 -158 -116 -137 -103 -113 -118 -118 -130 -178 -109 -283 -0 -0 -0 -0 -0 -0 -0 -0 -0 -0 -71 -59 -39 -52 -54 -19 -94 -0 -0 -0
-691 -577 -512 -488 -452 -426 -297 -227 -171 -129 -145 -192 -132 -142 -128 -127 -129 -141 -120 -135 -172 -84 -86 -254 -41 -0 -46 -0 -0 -0 -0 -0 -0 -0 -87 -51 -27 -17 -51 -4 -130 -0 -5
-672 -653 -595 -555 -511 -461 -415 -369 -248 -192 -159 -222 -176 -171 -160 -150 -173 -184 -164 -165 -137 -89 -78 -87 -103 -129 -179 -170 -159 -26 -0 -165 -0 -106 -92 -85 -96 -64 -10 -0 -13 -0 -1
-733 -701 -688 -655 -566 -521 -451 -395 -378 -356 -248 -226 -244 -179 -184 -180 -159 -167 -146 -139 -163 -105 -88 -76 -53 -54 -80 -76 -93 -96 -189 -0 -84 -96 -17 -11 -66 -0 -0 -6 -0 -4 -0
-785 -775 -695 -637 -591 -559 -522 -465 -425 -387 -344 -255 -259 -247 -195 -225 -212 -165 -142 -116 -113 -74 -63 -52 -30 -31 -87 -77 -62 -94 -66 -41 -30 -93 -15 -8 -71 -73 -0 -8 -6 -1 -0
-832 -813 -726 -663 -605 -570 -518 -471 -481 -461 -381 -324 -265 -295 -310 -232 -222 -193 -158 -127 -97 -66 -45 -49 -21 -47 -49 -84 -70 -95 -69 -39 -45 -30 -10 -85 -60 -75 -89 -14 -0 -10 -17
-843 -794 -711 -658 -633 -558 -495 -495 -490 -480 -476 -419 -318 -283 -317 -327 -244 -177 -139 -121 -102 -80 -62 -34 -1 -18 -46 -46 -46 -124 -161 -71 -61 -21 -80 -54 -75 -98 -81 -38 -41 -24 -40
-734 -747 -737 -690 -617 -558 -514 -509 -479 -441 -452 -471 -389 -296 -285 -302 -341 -261 -158 -126 -102 -86 -67 -3 -4 -9 -38 -33 -38 -98 -188 -95 -69 -44 -9 -43 -30 -32 -29 -42 -49 -0 -0
-730 -769 -761 -711 -660 -614 -594 -494 -432 -397 -407 -391 -367 -358 -306 -259 -256 -267 -225 -161 -113 -113 -45 -8 -11 -19 -29 -10 -37 -31 -77 -29 -19 -19 -0 -46 -56 -48 -0 -0 -15 -0 -0
-804 -709 -673 -646 -622 -628 -570 -504 -440 -335 -316 -338 -344 -329 -329 -298 -256 -204 -201 -153 -128 -63 -21 -9 -1 -75 -57 -47 -67 -49 -70 -56 -24 -14 -0 -27 -21 -34 -10 -0 -0 -0 -0
-677 -603 -586 -614 -600 -551 -522 -463 -377 -309 -233 -219 -222 -262 -310 -276 -220 -204 -210 -187 -97 -41 -17 -0 -0 -137 -122 -117 -108 -28 -11 -16 -11 -0 -38 -38 -41 -2 -0 -0 -0 -0 -0
-584 -549 -585 -536 -478 -399 -441 -390 -383 -305 -222 -186 -223 -216 -220 -101 -226 -131 -39 -8 -10 -14 -0 -0 -47 -158 -223 -200 -146 -127 -91 -45 -0 -43 -44 -45 -16 -0 -0 -0 -0 -0 -0
-549 -534 -531 -426 -380 -313 -296 -343 -263 -302 -440 -287 -283 -276 -219 -129 -106 -61 -2 -7 -24 -0 -23 -5 -78 -208 -279 -150 -80 -0 -0 -0 -41 -39 -42 -30 -0 -0 -0 -0 -0 -0 -0
-442 -441 -458 -501 -467 -321 -241 -246 -246 -209 -184 -122 -175 -123 -21 -88 -92 -51 -34 -2 -59 -1 -46 -66 -142 -271 -308 -159 -39 -0 -0 -0 -24 -0 -42 -0 -0 -0 -0 -0 -0 -0 -0
-403 -410 -362 -344 -460 -322 -236 -217 -180 -142 -104 -45 -23 -51 -52 -68 -26 -25 -52 -0 -1 -4 -27 -169 -356 -317 -92 -0 -0 -0 -0 -0 -0 -0 -0 -0 -0 -0 -0 -0 -1 -0 -0
-885 -441 -272 -299 -310 -367 -265 -178 -148 -84 -83 -59 -14 -8 -78 -65 -15 -5 -1 -112 -24 -0 -99 -282 -273 -240 -0 -0 -0 -0 -0 -0 -0 -0 -0 -0 -0 -0 -0 -0 -0 -0 -0
-651 -679 -440 -244 -142 -157 -149 -92 -73 -69 -6 -23 -7 -75 -115 -149 -9 -0 -97 -10 -5 -26 -132 -127 -126 -83 -0 -0 -0 -0 -0 -0 -0 -0 -0 -0 -0 -0 -0 -0 -0 -0 -0
-231 -548 -440 -317 -187 -130 -77 -8 -0 -1 -0 -19 -10 -19 -18 -40 -138 -176 -175 -17 -22 -57 -23 -10 -27 -28 -0 -0 -0 -0 -0 -0 -0 -0 -0 -0 -0 -0 -0 -0 -0 -0 -0
-108 -439 -441 -343 -255 -166 -74 -0 -0 -0 -0 -0 -12 -3 -15 -152 -126 -209 -40 -5 -20 -19 -96 -0 -0 -0 -0 -0 -0 -0 -0 -0 -0 -0 -0 -0 -0 -0 -0 -0 -0 -0 -0
-291 -359 -250 -0 -0 -3 -8 -0 -0 -12 -0 -0 -0 -0 -83 -74 -52 -60 -29 -75 -66 -0 -0 -0 -0 -0 -0 -0 -0 -0 -0 -0 -0 -0 -0 -0 -0 -0 -0 -0 -0 -0 -0
-222 -152 -168 -0 -0 -5 -5 -0 -0 -23 -173 -22 -15 -13 -53 -38 -73 -86 -0 -0 -0 -0 -0 -0 -0 -0 -0 -0 -0 -0 -0 -0 -0 -0 -0 -0 -0 -0 -0 -0 -0 -0 -0
-81 -87 -75 -66 -53 -50 -28 -77 -86 -65 -24 -40 -53 -65 -49 -76 -143 -0 -0 -0 -0 -0 -0 -0 -0 -0 -0 -0 -0 -0 -0 -0 -0 -0 -0 -0 -0 -0 -0 -0 -0 -0 -0
-88 -78 -78 -105 -65 -61 -27 -20 -28 -33 -31 -43 -33 -43 -43 -45 -52 -64 -9 -0 -0 -0 -0 -0 -0 -0 -0 -0 -0 -0 -0 -0 -0 -0 -0 -0 -0 -0 -0 -0 -0 -0 -0
-12 -22 -30 -43 -39 -32 -21 -45 -50 -37 -37 -29 -54 -62 -60 -59 -65 -73 -50 -59 -0 -0 -0 -0 -0 -1 -0 -0 -0 -0 -0 -0 -0 -0 -0 -0 -0 -0 -0 -0 -0 -0 -0
-46 -19 -0 -0 -7 -5 -17 -30 -34 -33 -20 -27 -29 -33 -18 -5 -16 -30 -38 -37 -0 -0 -0 -0 -2 -2 -0 -0 -0 -1 -0 -0 -0 -0 -0 -0 -0 -0 -0 -0 -0 -0 -0
Wind_Speed
14 15 16 14 14 16 19 16 17 20 19 16 14 12 7 8 12 15 13 14 14 nan nan nan nan nan nan nan nan nan nan nan nan nan nan nan nan nan nan nan nan nan nan
17 17 17 16 18 17 15 15 19 17 18 15 13 11 6 8 12 14 15 17 19 nan nan nan nan nan nan nan nan nan nan nan nan nan nan nan nan nan nan nan nan nan nan
18 19 18 19 18 19 17 15 19 17 17 16 14 10 6 9 13 14 17 18 19 19 20 nan nan nan nan nan nan nan nan nan nan nan nan nan nan nan nan nan nan nan nan
18 18 18 18 18 20 21 20 18 15 18 16 12 11 8 11 13 15 18 18 18 17 18 21 nan nan nan nan nan nan nan nan nan nan nan nan nan nan nan nan nan nan nan
17 17 14 16 17 18 21 19 17 15 14 15 15 14 12 14 16 20 20 21 23 23 20 20 22 26 31 34 nan nan nan nan nan nan nan nan nan nan nan nan nan nan nan
20 16 18 15 17 18 21 20 16 14 17 20 15 15 16 17 20 27 28 24 25 25 26 24 25 30 30 33 31 31 nan nan nan nan nan nan nan nan nan nan nan nan nan
17 17 17 19 18 18 21 24 23 21 20 18 18 19 17 19 27 30 32 28 28 28 30 31 28 27 30 28 29 31 nan nan nan nan nan nan 40 nan nan nan nan nan nan
23 20 21 19 19 19 24 25 27 28 26 21 20 21 23 23 30 32 35 31 29 31 36 36 33 32 36 32 30 nan nan nan nan nan nan 42 nan nan nan nan nan nan nan
22 21 26 25 24 22 24 26 27 28 26 26 28 27 27 28 34 36 41 34 32 34 40 42 39 35 35 38 35 36 nan nan nan nan nan nan nan nan nan nan nan nan nan
26 24 28 32 31 30 30 32 29 29 27 29 30 29 28 28 35 41 44 38 39 39 45 46 47 41 42 44 38 40 nan nan nan nan nan nan nan nan nan nan nan nan nan
26 32 31 34 36 29 37 30 29 29 33 34 35 36 32 35 39 45 47 43 43 44 45 47 47 40 42 45 41 41 nan nan nan nan nan nan nan nan nan nan nan nan nan
33 33 32 35 35 42 47 38 40 35 36 36 38 42 41 41 44 51 57 51 55 52 48 50 55 50 51 50 45 43 45 nan nan nan nan nan nan nan nan nan nan nan nan
40 34 36 34 34 38 40 44 55 55 33 38 42 40 45 51 58 60 56 53 61 63 55 44 48 48 53 53 47 nan nan nan nan nan nan nan nan nan nan nan nan nan nan
48 43 48 41 42 43 45 54 55 45 49 55 45 32 44 54 61 67 70 73 73 56 60 53 45 48 nan nan nan nan nan nan nan nan nan nan nan nan nan nan nan nan nan
54 51 54 57 56 51 58 64 40 54 54 50 56 52 56 57 68 70 68 68 68 46 49 41 34 nan nan nan nan nan nan nan nan nan nan nan nan nan nan nan nan nan nan
51 51 55 64 64 63 69 71 72 74 80 75 76 74 77 81 73 69 nan nan 75 44 22 nan nan nan nan nan nan nan nan nan nan nan nan nan nan nan nan nan nan nan nan
58 55 54 62 67 66 69 75 80 75 87 85 81 75 75 84 79 nan nan nan 41 25 nan nan nan nan nan nan nan nan nan nan nan nan nan nan nan nan nan nan nan nan nan
nan 51 52 51 56 62 66 71 77 82 83 78 74 71 89 nan 52 nan nan 56 20 20 nan nan nan nan nan nan nan nan nan nan nan nan nan nan nan nan nan nan nan nan nan
nan nan 50 56 59 64 65 75 84 84 84 83 74 72 80 nan nan 70 85 27 17 20 30 27 31 nan nan nan nan nan nan nan nan nan nan nan nan nan nan nan nan nan nan
46 51 54 53 52 55 60 64 75 86 87 78 nan nan nan 49 37 61 35 20 25 24 nan nan nan nan nan nan nan nan nan nan nan nan nan nan nan nan nan nan nan nan nan
46 nan nan nan nan nan nan nan nan nan nan nan nan nan 8 24 34 30 23 nan nan nan nan nan nan nan nan nan nan nan nan nan nan nan nan nan nan nan nan nan nan nan nan
44 37 nan nan nan nan nan nan nan nan nan nan 11 11 23 24 27 nan nan nan nan nan nan nan nan nan nan nan nan nan nan nan nan nan nan nan nan nan nan nan nan nan nan
36 28 22 25 19 17 11 nan nan 19 15 13 19 21 23 nan nan nan nan nan nan nan nan nan nan nan nan nan nan nan nan nan nan nan nan nan nan nan nan nan nan nan nan
34 22 nan nan 20 21 21 22 20 22 27 30 20 22 32 30 nan nan nan nan nan nan nan nan nan nan nan nan nan nan nan nan nan nan nan nan nan nan nan nan nan nan nan
nan nan nan nan 33 nan nan nan nan nan nan nan 29 28 34 nan nan nan nan nan nan nan nan nan nan nan nan nan nan nan nan nan nan nan nan nan nan nan nan nan nan nan nan
nan nan nan nan nan nan nan nan nan nan nan nan nan nan nan nan nan nan nan nan nan nan nan nan nan nan nan nan nan nan nan nan nan nan nan nan nan nan nan nan nan nan nan
Wind_Direction
351 353 348 330 303 279 272 271 262 266 281 280 271 278 276 306 309 308 311 324 339 nan nan nan nan nan nan nan nan nan nan nan nan nan nan nan nan nan nan nan nan nan nan
336 344 348 335 322 317 297 275 261 255 263 262 255 266 265 299 310 319 321 320 329 nan nan nan nan nan nan nan nan nan nan nan nan nan nan nan nan nan nan nan nan nan nan
324 338 339 339 327 325 317 291 261 245 253 244 256 259 279 298 312 319 319 318 326 337 346 nan nan nan nan nan nan nan nan nan nan nan nan nan nan nan nan nan nan nan nan
321 329 339 347 342 339 324 315 278 246 246 242 264 251 279 290 303 312 312 319 324 334 343 349 nan nan nan nan nan nan nan nan nan nan nan nan nan nan nan nan nan nan nan
310 315 350 346 348 343 338 333 314 280 258 250 260 252 267 281 283 299 302 312 326 336 345 342 336 341 347 349 nan nan nan nan nan nan nan nan nan nan nan nan nan nan nan
306 329 313 321 334 343 336 329 311 306 280 268 269 265 271 271 291 303 310 312 324 330 334 335 327 336 347 350 353 342 nan nan nan nan nan nan nan nan nan nan nan nan nan
286 292 305 310 311 322 318 319 324 313 290 286 279 270 276 280 288 302 311 306 313 320 322 324 326 321 333 336 340 333 nan nan nan nan nan nan 317 nan nan nan nan nan nan
291 273 284 293 299 298 304 316 317 315 310 291 291 289 280 274 285 298 307 299 304 309 311 317 322 323 326 328 324 nan nan nan nan nan nan 316 nan nan nan nan nan nan nan
299 269 281 289 290 291 308 315 304 298 304 306 292 291 290 281 291 298 292 292 292 298 302 307 311 316 322 328 325 323 nan nan nan nan nan nan nan nan nan nan nan nan nan
307 277 278 287 290 291 302 301 289 288 285 278 288 290 287 283 286 289 296 291 290 284 293 305 313 309 316 326 322 321 nan nan nan nan nan nan nan nan nan nan nan nan nan
280 271 274 273 282 277 283 284 276 278 273 275 279 278 282 279 281 288 290 281 282 281 287 291 302 306 307 315 318 315 nan nan nan nan nan nan nan nan nan nan nan nan nan
249 256 258 265 283 288 286 280 276 269 274 272 272 266 269 274 277 285 294 290 282 279 279 287 290 303 306 309 307 308 307 nan nan nan nan nan nan nan nan nan nan nan nan
256 254 253 254 268 262 282 268 265 272 262 264 267 267 265 264 273 281 283 276 274 270 268 269 293 294 293 298 299 nan nan nan nan nan nan nan nan nan nan nan nan nan nan
249 246 248 250 265 271 268 260 282 279 296 307 292 288 268 274 272 275 274 267 261 247 260 267 282 291 nan nan nan nan nan nan nan nan nan nan nan nan nan nan nan nan nan
255 263 270 268 271 266 252 262 259 274 279 281 283 283 278 267 260 271 264 264 264 237 250 265 281 nan nan nan nan nan nan nan nan nan nan nan nan nan nan nan nan nan nan
258 260 264 265 264 265 259 261 251 268 268 267 267 272 269 266 258 257 nan nan 249 253 271 nan nan nan nan nan nan nan nan nan nan nan nan nan nan nan nan nan nan nan nan
269 267 268 273 271 273 270 266 263 253 265 267 267 271 271 270 277 nan nan nan 318 307 nan nan nan nan nan nan nan nan nan nan nan nan nan nan nan nan nan nan nan nan nan
nan 275 276 276 277 276 273 270 271 271 266 261 259 263 274 nan 265 nan nan 278 255 252 nan nan nan nan nan nan nan nan nan nan nan nan nan nan nan nan nan nan nan nan nan
nan nan 279 278 275 272 269 267 266 265 256 251 247 250 251 nan nan 282 284 271 280 273 274 290 294 nan nan nan nan nan nan nan nan nan nan nan nan nan nan nan nan nan nan
276 272 276 277 276 273 269 268 261 244 246 255 nan nan nan 264 277 270 268 271 266 291 nan nan nan nan nan nan nan nan nan nan nan nan nan nan nan nan nan nan nan nan nan
272 nan nan nan nan nan nan nan nan nan nan nan nan nan 277 268 269 279 288 nan nan nan nan nan nan nan nan nan nan nan nan nan nan nan nan nan nan nan nan nan nan nan nan
270 270 nan nan nan nan nan nan nan nan nan nan 303 291 267 268 264 nan nan nan nan nan nan nan nan nan nan nan nan nan nan nan nan nan nan nan nan nan nan nan nan nan nan
258 265 273 282 296 304 293 nan nan 270 284 277 267 274 268 nan nan nan nan nan nan nan nan nan nan nan nan nan nan nan nan nan nan nan nan nan nan nan nan nan nan nan nan
254 259 nan nan 279 281 281 278 277 276 265 249 248 279 274 275 nan nan nan nan nan nan nan nan nan nan nan nan nan nan nan nan nan nan nan nan nan nan nan nan nan nan nan
nan nan nan nan 272 nan nan nan nan nan nan nan 272 268 267 nan nan nan nan nan nan nan nan nan nan nan nan nan nan nan nan nan nan nan nan nan nan nan nan nan nan nan nan
nan nan nan nan nan nan nan nan nan nan nan nan nan nan nan nan nan nan nan nan nan nan nan nan nan nan nan nan nan nan nan nan nan nan nan nan nan nan nan nan nan nan nan